Tracking 27419 objects as of 10-Jun-2023
HD Live streaming from Space Station
objects crossing your sky now

COSMOS 2499 DEB

Track COSMOS 2499 DEB now!
10-day predictions


NORAD ID: 49926
Int'l Code: 2014-028H
Perigee: 1,128.5 km
Apogee: 1,525.0 km
Inclination: 82.4 °
Period: 112.0 minutes
Semi major axis: 7697 km
RCS: Unknown
Launch date: May 23, 2014
Source: Commonwealth of Independent States (former USSR) (CIS)
Launch site: PLESETSK MISSILE AND SPACE COMPLEX (PKMTR)

Note: This is SATELLITE DEBRIS
Your satellite tracking list
Your tracking list is empty




NASA's NSSDC Master Catalog

Two Line Element Set (TLE):
1 49926U 14028H   23159.63061519  .00002008  00000-0  70481-2 0  9998
2 49926  82.4368 277.4587 0257515  80.1487 282.8585 12.85458653 75182
Source of the keplerian elements: AFSPC